Weather History for Springfield, IL

Change the Weather History Date:

Wednesday, December 4, 2013

  Actual Average Record
Temperature  
Mean Temperature 49 °F 34 °F  
Max Temperature 60 °F 42 °F 72 °F (1998)
Min Temperature 38 °F 26 °F 0 °F (1893)
Degree Days  
Heating Degree Days 16 31  
Month to date heating degree days 86 121  
Since 1 July heating degree days 1268 1189  
Cooling Degree Days 0 0  
Month to date cooling degree days 0 0  
Year to date cooling degree days 1145 1122  
Moisture  
Dew Point 47 °F    
Average Humidity 89    
Maximum Humidity 100    
Minimum Humidity 78    
Precipitation  
Precipitation 0.00 in 0.09 in 1.54 in (1973)
Month to date precipitation 0.00 0.38  
Year to date precipitation 36.75 35.29  
Snow  
Snow 0.00 in 0.20 in 2.70 in (1908)
Month to date snowfall 0.0 0.5  
Since 1 July snowfall 0.7 1.1  
Snow Depth 0.00 in    
Sea Level Pressure  
Sea Level Pressure 29.67 in    
Wind  
Wind Speed 11 mph (South)    
Max Wind Speed 24 mph    
Max Gust Speed 30 mph    
Visibility 5 miles    
Events Fog    
T = Trace of Precipitation, MM = Missing Value Source: NWS Daily Summary

Daily Weather History Graph

Daily Weather History Graph

Search for Another Location

Airport:

Trip Planner

Search our weather history database for the weather conditions in past years. The results will help you decide how hot, cold, wet, or windy it might be!

Date:

Astronomy

Dec. 04, 2013 Rise Set
Actual Time 7:04 AM CST 4:33 PM CST
Civil Twilight 6:34 AM CST 5:04 PM CST
Nautical Twilight 6:00 AM CST 5:37 PM CST
Astronomical Twilight 5:27 AM CST 6:10 PM CST
Moon 8:32 AM CST (12/4) 6:44 PM CST (12/4)
Length of Visible Light 10h 30m
Length of Day
9h 29m
Waxing Crescent, 4% of the Moon is Illuminated
Dec 4
Waxing Crescent
Dec 9
First Quarter
Dec 17
Full
Dec 25
Last Quarter
Jan 1
New

Hourly Weather History & Observations

Time (CST) Temp. Windchill Dew Point Humidity Pressure Visibility Wind Dir Wind Speed Gust Speed Precip Events Conditions
12:07 AM 44.6 °F 40.7 °F 42.8 °F 93% 29.70 in 1.2 mi SSE 6.9 mph - N/A   Scattered Clouds
12:10 AM 44.6 °F 40.2 °F 44.6 °F 100% 29.70 in 2.0 mi SSE 8.1 mph - N/A   Scattered Clouds
12:18 AM 46.4 °F 42.4 °F 44.6 °F 93% 29.70 in 5.0 mi SSE 8.1 mph - N/A   Partly Cloudy
12:52 AM 46.0 °F 41.9 °F 45.0 °F 96% 29.70 in 6.0 mi SSE 8.1 mph - N/A   Clear
1:52 AM 46.0 °F 41.4 °F 44.1 °F 93% 29.70 in 6.0 mi SSE 9.2 mph - N/A   Clear
2:28 AM 48.2 °F - 46.4 °F 93% 29.69 in 6.0 mi SSE 8.1 mph - N/A   Mostly Cloudy
2:52 AM 48.0 °F - 46.0 °F 93% 29.70 in 6.0 mi South 5.8 mph - N/A   Overcast
3:01 AM 48.2 °F - 46.4 °F 93% 29.69 in 6.0 mi South 8.1 mph - N/A   Overcast
3:52 AM 48.0 °F - 46.0 °F 93% 29.69 in 6.0 mi South 6.9 mph - N/A   Overcast
4:19 AM 48.2 °F - 46.4 °F 93% 29.68 in 1.8 mi SSE 6.9 mph - N/A   Overcast
4:26 AM 48.2 °F - 46.4 °F 93% 29.68 in 1.2 mi SSE 6.9 mph - N/A   Overcast
4:52 AM 48.9 °F - 48.0 °F 97% 29.67 in 1.2 mi SSE 8.1 mph - N/A   Overcast
5:00 AM 48.2 °F - 48.2 °F 100% 29.67 in 1.8 mi SSE 6.9 mph - N/A   Overcast
5:10 AM 48.2 °F - 48.2 °F 100% 29.67 in 2.0 mi SSE 8.1 mph - N/A   Overcast
5:22 AM 48.2 °F - 46.4 °F 93% 29.67 in 3.0 mi SSE 8.1 mph - N/A   Overcast
5:41 AM 48.2 °F - 46.4 °F 93% 29.67 in 4.0 mi SSE 5.8 mph - N/A   Overcast
5:52 AM 48.9 °F - 46.9 °F 93% 29.68 in 3.0 mi SE 5.8 mph - N/A   Overcast
6:03 AM 48.2 °F - 46.4 °F 93% 29.67 in 4.0 mi SE 9.2 mph - N/A   Overcast
6:52 AM 48.0 °F - 46.0 °F 93% 29.66 in 4.0 mi SE 8.1 mph - N/A   Overcast
7:04 AM 48.2 °F - 46.4 °F 93% 29.66 in 2.5 mi SE 8.1 mph - N/A   Overcast
7:15 AM 48.2 °F - 46.4 °F 93% 29.65 in 2.5 mi SE 9.2 mph - N/A   Mostly Cloudy
7:33 AM 50.0 °F - 48.2 °F 94% 29.66 in 1.5 mi SSE 9.2 mph - N/A   Overcast
7:52 AM 50.0 °F - 48.9 °F 96% 29.67 in 1.5 mi SSE 9.2 mph - N/A   Overcast
8:52 AM 51.1 °F - 50.0 °F 96% 29.65 in 1.2 mi SSE 9.2 mph - N/A   Overcast
9:52 AM 52.0 °F - 51.1 °F 97% 29.66 in 0.8 mi SSE 8.1 mph - N/A   Overcast
10:52 AM 54.0 °F - 52.0 °F 93% 29.60 in 0.5 mi SE 11.5 mph - N/A Fog Fog
11:52 AM 55.0 °F - 54.0 °F 96% 29.58 in 0.5 mi South 11.5 mph - N/A Fog Fog
11:59 AM 55.4 °F - 53.6 °F 94% 29.57 in 1.0 mi South 13.8 mph - N/A   Overcast
12:23 PM 55.4 °F - 53.6 °F 94% 29.55 in 0.5 mi South 11.5 mph - N/A Fog Fog
12:52 PM 55.9 °F - 54.0 °F 93% 29.54 in 6.0 mi South 10.4 mph 23.0 mph N/A   Overcast
1:06 PM 57.2 °F - 53.6 °F 88% 29.52 in 7.0 mi South 13.8 mph - N/A   Overcast
1:52 PM 59.0 °F - 53.1 °F 81% 29.50 in 9.0 mi South 15.0 mph - N/A   Overcast
2:52 PM 60.1 °F - 53.1 °F 78% 29.53 in 9.0 mi SSW 11.5 mph - N/A   Overcast
3:42 PM 60.8 °F - 53.6 °F 77% 29.55 in 9.0 mi SSW 5.8 mph - N/A   Overcast
3:52 PM 60.1 °F - 54.0 °F 80% 29.56 in 9.0 mi SSW 5.8 mph - N/A   Overcast
4:52 PM 54.0 °F - 51.1 °F 90% 29.57 in 9.0 mi South 5.8 mph - N/A   Mostly Cloudy
5:52 PM 55.9 °F - 52.0 °F 87% 29.61 in 5.0 mi West 16.1 mph 20.7 mph N/A   Overcast
6:52 PM 52.0 °F - 46.0 °F 80% 29.66 in 10.0 mi WSW 13.8 mph - N/A   Scattered Clouds
7:52 PM 50.0 °F - 45.0 °F 83% 29.68 in 9.0 mi West 12.7 mph 21.9 mph N/A   Scattered Clouds
8:06 PM 48.2 °F - 44.6 °F 87% 29.70 in 9.0 mi West 17.3 mph 25.3 mph N/A   Mostly Cloudy
8:38 PM 46.4 °F 40.7 °F 42.8 °F 87% 29.71 in 9.0 mi West 12.7 mph - N/A   Mostly Cloudy
8:52 PM 46.0 °F 39.3 °F 41.0 °F 83% 29.73 in 9.0 mi West 16.1 mph 23.0 mph N/A   Mostly Cloudy
8:59 PM 44.6 °F 38.1 °F 41.0 °F 87% 29.73 in 10.0 mi West 13.8 mph - N/A   Mostly Cloudy
9:10 PM 44.6 °F 38.4 °F 39.2 °F 81% 29.74 in 10.0 mi West 12.7 mph - N/A   Scattered Clouds
9:24 PM 44.6 °F 38.1 °F 39.2 °F 81% 29.77 in 10.0 mi West 13.8 mph - N/A   Mostly Cloudy
9:52 PM 43.0 °F 35.4 °F 37.9 °F 82% 29.79 in 10.0 mi West 16.1 mph 25.3 mph N/A   Overcast
10:52 PM 39.9 °F 31.4 °F 36.0 °F 86% 29.81 in 10.0 mi WSW 16.1 mph - N/A   Overcast
11:27 PM 39.2 °F 30.2 °F 33.8 °F 81% 29.82 in 10.0 mi West 17.3 mph - N/A   Overcast
11:52 PM 37.9 °F 27.9 °F 32.0 °F 79% 29.84 in 10.0 mi West 19.6 mph - N/A   Overcast